Ketchikan, AK

1:58 AM AKDT on June 24, 2017 (GMT -0800)
Ketchikan International

Weather History for PAKT - October, 2012

Change the Weather History Date:

Saturday, October 6, 2012

  Actual Average Record
Temperature  
Mean Temperature 56 °F -  
Max Temperature 60 °F 54 °F 69 °F (1964)
Min Temperature 52 °F 44 °F 32 °F (1970)
Degree Days  
Heating Degree Days 10    
Growing Degree Days 6 (Base 50)    
Moisture  
Dew Point 50 °F    
Average Humidity 84    
Maximum Humidity 93    
Minimum Humidity 72    
Precipitation  
Precipitation 0.00 in - - ()
Sea Level Pressure  
Sea Level Pressure 30.31 in    
Wind  
Wind Speed 13 mph (NW)    
Max Wind Speed 16 mph    
Max Gust Speed -    
Visibility 10 miles    
Events      
Averages and records for this station are not official NWS values.
T = Trace of Precipitation, MM = Missing Value Source: NWS Daily Summary

Daily Weather History Graph

Daily Weather History Graph

Search for Another Location

Airport or City:

Trip Planner

Search our weather history database for the weather conditions in past years. The results will help you decide how hot, cold, wet, or windy it might be!

Date:

Astronomy

Oct. 06, 2012 Rise Set
Actual Time 7:00 AM AKDT 6:07 PM AKDT
Civil Twilight 6:23 AM AKDT 6:44 PM AKDT
Nautical Twilight 5:41 AM AKDT 7:26 PM AKDT
Astronomical Twilight 4:58 AM AKDT 8:09 PM AKDT
Moon 9:42 PM AKDT (10/6) 1:48 PM AKDT (10/6)
Length of Visible Light 12h 20m
Length of Day
11h 07m
Waning Gibbous, 64% of the Moon is Illuminated
Oct 6
Waning Gibbous
Oct 7
Last Quarter
Oct 15
New
Oct 21
First Quarter
Oct 29
Full

Hourly Weather History & Observations

Time (AKDT) Temp. Dew Point Humidity Pressure Visibility Wind Dir Wind Speed Gust Speed Precip Events Conditions
12:53 AM 53.1 °F 51.1 °F 93% 30.35 in 10.0 mi NW 11.5 mph - N/A   Clear
1:53 AM 55.0 °F 51.1 °F 86% 30.35 in 10.0 mi NW 13.8 mph - N/A   Clear
2:53 AM 54.0 °F 51.1 °F 90% 30.34 in 10.0 mi NW 12.7 mph - N/A   Clear
3:53 AM 54.0 °F 51.1 °F 90% 30.32 in 10.0 mi NNW 13.8 mph - N/A   Clear
4:53 AM 53.1 °F 50.0 °F 89% 30.32 in 10.0 mi NW 13.8 mph - N/A   Clear
5:53 AM 52.0 °F 50.0 °F 93% 30.33 in 10.0 mi NNW 13.8 mph - N/A   Clear
6:53 AM 52.0 °F 50.0 °F 93% 30.33 in 10.0 mi North 12.7 mph - N/A   Partly Cloudy
7:53 AM 53.1 °F 50.0 °F 89% 30.33 in 10.0 mi NNW 16.1 mph - N/A   Partly Cloudy
8:53 AM 55.9 °F 50.0 °F 80% 30.33 in 10.0 mi NNW 15.0 mph - N/A   Clear
9:53 AM 55.9 °F 50.0 °F 80% 30.33 in 10.0 mi NNW 16.1 mph - N/A   Clear
10:53 AM 57.0 °F 50.0 °F 77% 30.33 in 10.0 mi NNW 15.0 mph - N/A   Clear
11:53 AM 57.9 °F 50.0 °F 75% 30.32 in 10.0 mi NNW 16.1 mph - N/A   Clear
12:53 PM 57.0 °F 51.1 °F 81% 30.31 in 10.0 mi NW 13.8 mph - N/A   Clear
1:53 PM 57.9 °F 51.1 °F 78% 30.30 in 10.0 mi NW 15.0 mph - N/A   Clear
2:53 PM 59.0 °F 50.0 °F 72% 30.30 in 10.0 mi NW 12.7 mph - N/A   Clear
3:53 PM 57.9 °F 50.0 °F 75% 30.29 in 10.0 mi NW 11.5 mph - N/A   Clear
4:53 PM 57.0 °F 50.0 °F 77% 30.28 in 10.0 mi NW 9.2 mph - N/A   Clear
5:53 PM 57.0 °F 48.9 °F 74% 30.28 in 10.0 mi WNW 10.4 mph - N/A   Clear
6:53 PM 54.0 °F 50.0 °F 86% 30.28 in 10.0 mi WNW 8.1 mph - N/A   Clear
7:53 PM 54.0 °F 50.0 °F 86% 30.28 in 10.0 mi NW 6.9 mph - N/A   Clear
8:53 PM 53.1 °F 50.0 °F 89% 30.28 in 10.0 mi NW 6.9 mph - N/A   Clear
9:53 PM 54.0 °F 50.0 °F 86% 30.28 in 10.0 mi WNW 8.1 mph - N/A   Clear
10:53 PM 53.1 °F 50.0 °F 89% 30.27 in 10.0 mi WNW 9.2 mph - N/A   Clear
11:53 PM 52.0 °F 48.9 °F 89% 30.27 in 10.0 mi NW 9.2 mph - N/A   Clear